PUA2603 SABE-SAZM

Flight info

Callsign PUA2603
Flight time 0h 40m
Altitude 27000
Route PTA8 GBE UW29 VOTRA VOTRA2Q
Aircraft A20N/M-SDE2E3FGHIRWXY/LB1

Departure

Time 2026-04-21 16:40
Airport Aeroparque Jorge Newbery (SABE)

Arrival

Time 2026-04-21 17:20
Airport Ástor Piazzola International Airport (SAZM)
Time Latitude Longitude Altitude Speed Heading
2026-04-21 16:27 -34.55676 -58.41483 28 ft 0 kts 14°
2026-04-21 16:33 -34.55681 -58.41485 28 ft 1 kts 17°
2026-04-21 16:33 -34.55695 -58.41488 28 ft 2 kts 357°
2026-04-21 16:33 -34.55711 -58.41486 28 ft 2 kts 346°
2026-04-21 16:34 -34.55725 -58.41479 28 ft 2 kts 333°
2026-04-21 16:34 -34.55737 -58.41470 28 ft 2 kts 319°
2026-04-21 16:34 -34.55748 -58.41456 28 ft 2 kts 306°
2026-04-21 16:34 -34.55753 -58.41448 28 ft 1 kts 298°
2026-04-21 16:35 -34.55754 -58.41444 28 ft 0 kts 299°
2026-04-21 16:36 -34.55747 -58.41460 28 ft 3 kts 299°
2026-04-21 16:36 -34.55730 -58.41499 28 ft 6 kts 295°
2026-04-21 16:36 -34.55736 -58.41559 27 ft 9 kts 229°
2026-04-21 16:37 -34.55779 -58.41618 27 ft 10 kts 267°
2026-04-21 16:37 -34.55753 -58.41708 27 ft 12 kts 297°
2026-04-21 16:37 -34.55708 -58.41806 26 ft 14 kts 303°
2026-04-21 16:37 -34.55647 -58.41911 25 ft 15 kts 304°
2026-04-21 16:38 -34.55581 -58.42027 25 ft 16 kts 304°
2026-04-21 16:38 -34.55508 -58.42144 25 ft 17 kts 308°
2026-04-21 16:38 -34.55434 -58.42262 27 ft 17 kts 307°
2026-04-21 16:38 -34.55365 -58.42385 27 ft 17 kts 291°
2026-04-21 16:39 -34.55389 -58.42498 28 ft 14 kts 188°
2026-04-21 16:39 -34.55431 -58.42442 28 ft 8 kts 124°
2026-04-21 16:39 -34.55544 -58.42243 27 ft 65 kts 126°
2026-04-21 16:39 -34.55945 -58.41540 31 ft 134 kts 123°
2026-04-21 16:40 -34.56558 -58.40420 225 ft 171 kts 124°
2026-04-21 16:40 -34.57227 -58.39218 910 ft 174 kts 121°
2026-04-21 16:40 -34.57734 -58.37926 1697 ft 171 kts 92°
2026-04-21 16:40 -34.57398 -58.36618 2237 ft 172 kts 44°
2026-04-21 16:41 -34.56740 -58.36060 2544 ft 180 kts 26°
2026-04-21 16:41 -34.55185 -58.35027 3187 ft 202 kts 31°
2026-04-21 16:41 -34.53950 -58.34065 3633 ft 222 kts 31°
2026-04-21 16:41 -34.52681 -58.32806 4051 ft 247 kts 51°
2026-04-21 16:42 -34.51978 -58.30832 4594 ft 269 kts 80°
2026-04-21 16:42 -34.52152 -58.28554 5381 ft 279 kts 106°
2026-04-21 16:42 -34.52846 -58.26327 6221 ft 285 kts 111°
2026-04-21 16:42 -34.53837 -58.24226 6971 ft 293 kts 130°
2026-04-21 16:43 -34.55395 -58.22653 7760 ft 298 kts 148°
2026-04-21 16:43 -34.57165 -58.21352 8536 ft 303 kts 150°
2026-04-21 16:43 -34.58971 -58.20043 9282 ft 308 kts 149°
2026-04-21 16:43 -34.60818 -58.18673 10035 ft 313 kts 149°
2026-04-21 16:44 -34.62682 -58.17260 10633 ft 324 kts 148°
2026-04-21 16:44 -34.64640 -58.15756 11010 ft 341 kts 148°
2026-04-21 16:44 -34.66690 -58.14165 11359 ft 359 kts 148°
2026-04-21 16:44 -34.68838 -58.12487 11701 ft 376 kts 148°
2026-04-21 16:45 -34.71054 -58.10751 12305 ft 382 kts 148°
2026-04-21 16:45 -34.73326 -58.08968 13006 ft 386 kts 148°
2026-04-21 16:45 -34.75566 -58.07208 13687 ft 390 kts 148°
2026-04-21 16:45 -34.77882 -58.05387 14345 ft 394 kts 148°
2026-04-21 16:46 -34.80195 -58.03568 14987 ft 398 kts 148°
2026-04-21 16:46 -34.82508 -58.01749 15616 ft 402 kts 148°
2026-04-21 16:46 -34.84867 -57.99892 16225 ft 407 kts 148°
2026-04-21 16:46 -34.87253 -57.98012 16834 ft 410 kts 148°
2026-04-21 16:47 -34.89654 -57.96120 17440 ft 414 kts 148°
2026-04-21 16:47 -34.92123 -57.94172 18022 ft 418 kts 149°
2026-04-21 16:47 -34.94581 -57.92350 18543 ft 420 kts 157°
2026-04-21 16:47 -34.97425 -57.91432 19034 ft 414 kts 181°
2026-04-21 16:48 -35.00220 -57.91828 19577 ft 404 kts 203°
2026-04-21 16:48 -35.02744 -57.93301 20104 ft 397 kts 217°
2026-04-21 16:48 -35.05086 -57.95064 20660 ft 400 kts 218°
2026-04-21 16:48 -35.07459 -57.96856 21207 ft 402 kts 217°
2026-04-21 16:49 -35.09889 -57.98670 21721 ft 406 kts 217°
2026-04-21 16:49 -35.12336 -58.00475 22241 ft 409 kts 217°
2026-04-21 16:49 -35.14769 -58.02258 22754 ft 411 kts 217°
2026-04-21 16:49 -35.17219 -58.04047 23257 ft 413 kts 217°
2026-04-21 16:50 -35.19697 -58.05855 23748 ft 416 kts 217°
2026-04-21 16:50 -35.22194 -58.07677 24246 ft 417 kts 217°
2026-04-21 16:50 -35.24719 -58.09519 24694 ft 420 kts 217°
2026-04-21 16:50 -35.27242 -58.11359 25137 ft 423 kts 217°
2026-04-21 16:51 -35.29762 -58.13197 25580 ft 424 kts 217°
2026-04-21 16:51 -35.32347 -58.15083 26007 ft 427 kts 217°
2026-04-21 16:51 -35.34898 -58.16946 26420 ft 429 kts 217°
2026-04-21 16:51 -35.37487 -58.18837 26807 ft 431 kts 217°
2026-04-21 16:52 -35.40077 -58.20732 27000 ft 433 kts 217°
2026-04-21 16:52 -35.42654 -58.22618 27001 ft 432 kts 217°
2026-04-21 16:52 -35.44409 -58.23900 27006 ft 432 kts 217°
2026-04-21 16:52 -35.47835 -58.26411 27005 ft 432 kts 217°
2026-04-21 16:53 -35.50436 -58.28318 27006 ft 431 kts 217°
2026-04-21 16:53 -35.53002 -58.30203 27008 ft 431 kts 217°
2026-04-21 16:53 -35.55574 -58.32092 27006 ft 432 kts 217°
2026-04-21 16:53 -35.58164 -58.33997 27006 ft 431 kts 217°
2026-04-21 16:54 -35.60759 -58.35907 27006 ft 430 kts 217°
2026-04-21 16:54 -35.63336 -58.37805 27002 ft 431 kts 217°
2026-04-21 16:54 -35.65909 -58.39702 27002 ft 431 kts 217°
2026-04-21 16:54 -35.68478 -58.41598 27004 ft 431 kts 217°
2026-04-21 16:55 -35.71031 -58.43480 27002 ft 432 kts 216°
2026-04-21 16:55 -35.73811 -58.44995 26990 ft 445 kts 202°
2026-04-21 16:55 -35.76913 -58.45542 27002 ft 460 kts 186°
2026-04-21 16:55 -35.80154 -58.45026 27009 ft 472 kts 172°
2026-04-21 16:56 -35.83324 -58.44005 27012 ft 473 kts 169°
2026-04-21 16:56 -35.86510 -58.42912 27011 ft 474 kts 169°
2026-04-21 16:56 -35.89664 -58.41827 27009 ft 473 kts 169°
2026-04-21 16:56 -35.92829 -58.40754 27009 ft 473 kts 169°
2026-04-21 16:57 -35.95978 -58.39701 27007 ft 473 kts 170°
2026-04-21 16:57 -35.99163 -58.38644 27009 ft 473 kts 170°
2026-04-21 16:57 -36.02348 -58.37594 27007 ft 473 kts 170°
2026-04-21 16:57 -36.05538 -58.36545 27007 ft 474 kts 170°
2026-04-21 16:58 -36.08732 -58.35494 27008 ft 474 kts 170°
2026-04-21 16:58 -36.11882 -58.34458 27007 ft 474 kts 170°
2026-04-21 16:58 -36.15071 -58.33409 27010 ft 474 kts 170°
2026-04-21 16:58 -36.18256 -58.32361 27005 ft 474 kts 170°
2026-04-21 16:59 -36.21475 -58.31297 27002 ft 474 kts 170°
2026-04-21 16:59 -36.24616 -58.30260 27005 ft 474 kts 170°
2026-04-21 16:59 -36.27814 -58.29204 27012 ft 474 kts 170°
2026-04-21 16:59 -36.30991 -58.28156 27019 ft 474 kts 169°
2026-04-21 17:00 -36.34159 -58.27109 27013 ft 474 kts 169°
2026-04-21 17:00 -36.37388 -58.26040 27009 ft 474 kts 169°
2026-04-21 17:00 -36.39495 -58.25340 27013 ft 474 kts 169°
2026-04-21 17:00 -36.43710 -58.23942 26806 ft 469 kts 169°
2026-04-21 17:01 -36.46897 -58.22885 25893 ft 475 kts 169°
2026-04-21 17:01 -36.50130 -58.21820 24712 ft 484 kts 169°
2026-04-21 17:01 -36.53366 -58.20748 24108 ft 479 kts 168°
2026-04-21 17:01 -36.56563 -58.19679 23614 ft 471 kts 168°
2026-04-21 17:02 -36.59735 -58.18619 23074 ft 465 kts 168°
2026-04-21 17:02 -36.62845 -58.17579 22481 ft 461 kts 168°
2026-04-21 17:02 -36.65918 -58.16552 21891 ft 457 kts 168°
2026-04-21 17:02 -36.68991 -58.15526 21255 ft 454 kts 168°
2026-04-21 17:03 -36.72027 -58.14510 20679 ft 450 kts 167°
2026-04-21 17:03 -36.75020 -58.13508 20095 ft 447 kts 168°
2026-04-21 17:03 -36.78012 -58.12505 19512 ft 443 kts 167°
2026-04-21 17:03 -36.80990 -58.11507 18928 ft 440 kts 167°
2026-04-21 17:04 -36.83924 -58.10525 18357 ft 436 kts 167°
2026-04-21 17:04 -36.86862 -58.09539 17772 ft 433 kts 167°
2026-04-21 17:04 -36.89765 -58.08564 17188 ft 430 kts 167°
2026-04-21 17:04 -36.92635 -58.07600 16613 ft 427 kts 166°
2026-04-21 17:05 -36.95507 -58.06635 16038 ft 424 kts 167°
2026-04-21 17:05 -36.98363 -58.05673 15455 ft 421 kts 166°
2026-04-21 17:05 -37.01178 -58.04723 14924 ft 417 kts 166°
2026-04-21 17:05 -37.04010 -58.03767 14249 ft 418 kts 166°
2026-04-21 17:06 -37.06830 -58.02883 13622 ft 416 kts 169°
2026-04-21 17:06 -37.09659 -58.02198 13067 ft 412 kts 171°
2026-04-21 17:06 -37.12476 -58.01570 12550 ft 407 kts 171°
2026-04-21 17:06 -37.15238 -58.00965 12099 ft 401 kts 171°
2026-04-21 17:07 -37.17047 -58.00567 11785 ft 397 kts 171°
2026-04-21 17:07 -37.20653 -57.99769 11179 ft 390 kts 170°
2026-04-21 17:07 -37.23298 -57.99180 10758 ft 384 kts 170°
2026-04-21 17:07 -37.25885 -57.98601 10555 ft 363 kts 170°
2026-04-21 17:08 -37.28292 -57.98060 10413 ft 340 kts 170°
2026-04-21 17:08 -37.30559 -57.97549 10279 ft 319 kts 169°
2026-04-21 17:08 -37.32709 -57.97064 10156 ft 307 kts 169°
2026-04-21 17:08 -37.34777 -57.96597 10047 ft 300 kts 169°
2026-04-21 17:09 -37.38879 -57.95672 9424 ft 298 kts 169°
2026-04-21 17:09 -37.40915 -57.95214 9107 ft 297 kts 169°
2026-04-21 17:09 -37.42966 -57.94754 8787 ft 295 kts 169°
2026-04-21 17:10 -37.44985 -57.94297 8466 ft 293 kts 169°
2026-04-21 17:10 -37.46979 -57.93847 8154 ft 292 kts 169°
2026-04-21 17:10 -37.48974 -57.93397 7843 ft 290 kts 168°
2026-04-21 17:10 -37.50951 -57.92950 7542 ft 288 kts 168°
2026-04-21 17:11 -37.52922 -57.92503 7227 ft 287 kts 168°
2026-04-21 17:11 -37.54867 -57.92061 6917 ft 285 kts 168°
2026-04-21 17:11 -37.56813 -57.91621 6604 ft 283 kts 168°
2026-04-21 17:11 -37.58761 -57.91180 6292 ft 282 kts 168°
2026-04-21 17:12 -37.60674 -57.90746 5992 ft 280 kts 168°
2026-04-21 17:12 -37.62603 -57.90312 5682 ft 277 kts 167°
2026-04-21 17:12 -37.64508 -57.89885 5368 ft 276 kts 167°
2026-04-21 17:12 -37.66384 -57.89453 5077 ft 273 kts 166°
2026-04-21 17:13 -37.68238 -57.89031 4795 ft 270 kts 167°
2026-04-21 17:13 -37.70071 -57.88620 4502 ft 267 kts 167°
2026-04-21 17:13 -37.71883 -57.88207 4225 ft 264 kts 165°
2026-04-21 17:13 -37.73692 -57.87795 3946 ft 260 kts 166°
2026-04-21 17:14 -37.75448 -57.87397 3876 ft 249 kts 166°
2026-04-21 17:14 -37.77114 -57.87018 3805 ft 238 kts 164°
2026-04-21 17:14 -37.78610 -57.86291 3691 ft 230 kts 137°
2026-04-21 17:14 -37.79643 -57.84785 3414 ft 223 kts 119°
2026-04-21 17:15 -37.80444 -57.83140 3150 ft 220 kts 116°
2026-04-21 17:15 -37.81220 -57.81495 2888 ft 217 kts 117°
2026-04-21 17:15 -37.82005 -57.79872 2680 ft 213 kts 118°
2026-04-21 17:15 -37.82784 -57.78305 2509 ft 206 kts 118°
2026-04-21 17:16 -37.83537 -57.76811 2369 ft 197 kts 118°
2026-04-21 17:16 -37.84258 -57.75391 2291 ft 186 kts 118°
2026-04-21 17:16 -37.84930 -57.74069 2352 ft 173 kts 118°
2026-04-21 17:16 -37.85552 -57.72849 2282 ft 157 kts 118°
2026-04-21 17:17 -37.86110 -57.71752 2262 ft 140 kts 117°
2026-04-21 17:17 -37.86636 -57.70717 2263 ft 138 kts 117°
2026-04-21 17:17 -37.87150 -57.69697 2104 ft 137 kts 117°
2026-04-21 17:17 -37.87659 -57.68689 1925 ft 136 kts 118°
2026-04-21 17:18 -37.88171 -57.67681 1748 ft 136 kts 117°
2026-04-21 17:18 -37.88683 -57.66670 1560 ft 136 kts 118°
2026-04-21 17:18 -37.89192 -57.65666 1393 ft 136 kts 118°
2026-04-21 17:18 -37.89704 -57.64657 1217 ft 135 kts 118°
2026-04-21 17:19 -37.90210 -57.63660 1037 ft 135 kts 119°
2026-04-21 17:19 -37.90716 -57.62661 857 ft 135 kts 120°
2026-04-21 17:19 -37.91222 -57.61662 676 ft 135 kts 120°
2026-04-21 17:19 -37.91731 -57.60659 497 ft 134 kts 121°
2026-04-21 17:20 -37.92233 -57.59669 337 ft 134 kts 121°
2026-04-21 17:20 -37.92738 -57.58673 150 ft 133 kts 122°
2026-04-21 17:20 -37.93213 -57.57744 60 ft 103 kts 124°
2026-04-21 17:20 -37.93452 -57.57270 55 ft 35 kts 123°
2026-04-21 17:21 -37.93557 -57.57061 55 ft 25 kts 122°
2026-04-21 17:21 -37.93649 -57.56878 55 ft 23 kts 123°
2026-04-21 17:21 -37.93736 -57.56705 55 ft 22 kts 122°
2026-04-21 17:21 -37.93818 -57.56541 54 ft 21 kts 122°
2026-04-21 17:22 -37.93870 -57.56435 55 ft 20 kts 123°
2026-04-21 17:22 -37.93998 -57.56367 54 ft 19 kts 238°
2026-04-21 17:22 -37.94024 -57.56521 55 ft 18 kts 290°
2026-04-21 17:22 -37.93961 -57.56663 55 ft 18 kts 302°
2026-04-21 17:23 -37.93897 -57.56808 54 ft 18 kts 299°
2026-04-21 17:23 -37.93832 -57.56955 55 ft 19 kts 299°
2026-04-21 17:23 -37.93768 -57.57100 55 ft 18 kts 300°
2026-04-21 17:23 -37.93704 -57.57243 56 ft 18 kts 299°
2026-04-21 17:24 -37.93645 -57.57380 58 ft 17 kts 298°
2026-04-21 17:24 -37.93585 -57.57519 58 ft 17 kts 299°
2026-04-21 17:24 -37.93527 -57.57650 61 ft 16 kts 300°
2026-04-21 17:24 -37.93470 -57.57777 61 ft 16 kts 300°
2026-04-21 17:25 -37.93413 -57.57904 62 ft 16 kts 299°
2026-04-21 17:25 -37.93360 -57.58013 64 ft 12 kts 316°
2026-04-21 17:25 -37.93326 -57.58075 64 ft 3 kts 300°
2026-04-21 17:25 -37.93321 -57.58086 64 ft 0 kts 302°